Annapolis Naval Academy, MD

6:05 AM EDT on April 24, 2018 (GMT -0400)
Annapolis Naval Academy

Weather History for KNAK - May, 2014

Change the Weather History Date:

Friday, May 16, 2014

  Actual Average (KBWI) Record (KBWI)
Temperature  
Mean Temperature 64 °F -  
Max Temperature 71 °F 73 °F 92 °F (1998)
Min Temperature 57 °F 51 °F 37 °F (1973)
Degree Days  
Heating Degree Days 1    
Growing Degree Days 14 (Base 50)    
Moisture  
Dew Point 58 °F    
Average Humidity 83    
Maximum Humidity 94    
Minimum Humidity 57    
Precipitation  
Precipitation 0.69 in - - ()
Sea Level Pressure  
Sea Level Pressure 29.85 in    
Wind  
Wind Speed 14 mph (WNW)    
Max Wind Speed 25 mph    
Max Gust Speed 34 mph    
Visibility 7 miles    
Events Rain    
Averages and records for this station are not official NWS values.
T = Trace of Precipitation, MM = Missing Value Source: NWS Daily Summary

Daily Weather History Graph

Daily Weather History Graph

Search for Another Location

Airport or City:

Astronomy

May. 16, 2014 Rise Set
Actual Time 5:52 AM EDT 8:12 PM EDT
Civil Twilight 5:22 AM EDT 8:42 PM EDT
Nautical Twilight 4:45 AM EDT 9:20 PM EDT
Astronomical Twilight 4:04 AM EDT 10:01 PM EDT
Moon 10:17 PM EDT (5/16) 7:31 AM EDT (5/16)
Length of Visible Light 15h 20m
Length of Day
14h 20m
Waning Gibbous, 95% of the Moon is Illuminated
May 16
Waning Gibbous
May 21
Last Quarter
May 28
New
Jun 5
First Quarter
Jun 13
Full

Hourly Weather History & Observations

Time (EDT) Temp. Dew Point Humidity Pressure Visibility Wind Dir Wind Speed Gust Speed Precip Events Conditions
12:25 AM 71.1 °F 66.0 °F 84% 29.93 in 10.0 mi SSE 17.3 mph 26.5 mph N/A   Overcast
12:32 AM 71.1 °F 66.0 °F 84% 29.93 in 10.0 mi SSE 16.1 mph 26.5 mph N/A   Overcast
12:54 AM 71.1 °F 66.0 °F 84% 29.93 in 10.0 mi SSE 17.3 mph 25.3 mph N/A   Overcast
1:54 AM 70.0 °F 66.0 °F 87% 29.90 in 7.0 mi SSE 17.3 mph - 0.01 in Rain Light Rain
2:54 AM 70.0 °F 66.0 °F 87% 29.86 in 7.0 mi SSE 19.6 mph - 0.03 in Rain Light Rain
3:54 AM 70.0 °F 66.9 °F 90% 29.83 in 8.0 mi SSE 20.7 mph 27.6 mph 0.04 in Rain Light Rain
4:54 AM 70.0 °F 66.9 °F 90% 29.80 in 6.0 mi SSE 25.3 mph 31.1 mph 0.03 in Rain Light Rain
5:54 AM 70.0 °F 66.9 °F 90% 29.77 in 4.0 mi SSE 23.0 mph 34.5 mph 0.04 in Rain Light Rain
6:46 AM 70.0 °F 66.9 °F 90% 29.80 in 6.0 mi South 17.3 mph 27.6 mph 0.01 in Rain Light Rain
6:54 AM 70.0 °F 66.0 °F 87% 29.81 in 4.0 mi South 20.7 mph 29.9 mph 0.02 in Rain Light Rain
7:09 AM 70.0 °F 66.9 °F 90% 29.80 in 2.5 mi South 24.2 mph 34.5 mph 0.03 in Rain Rain
7:21 AM 69.1 °F 66.9 °F 93% 29.81 in 3.0 mi South 21.9 mph 29.9 mph 0.05 in Rain Light Rain
7:29 AM 64.0 °F 62.1 °F 93% 29.83 in 2.5 mi WSW 12.7 mph 28.8 mph 0.08 in Rain Rain
7:36 AM 60.1 °F 57.9 °F 93% 29.83 in 1.5 mi Variable 5.8 mph 19.6 mph 0.13 in Rain Rain
7:54 AM 59.0 °F 57.0 °F 93% 29.83 in 1.8 mi WNW 10.4 mph - 0.22 in Rain Light Rain
8:01 AM 59.0 °F 55.9 °F 90% 29.83 in 2.0 mi West 10.4 mph - 0.03 in Rain Rain
8:30 AM 57.0 °F 55.0 °F 93% 29.84 in 4.0 mi WNW 9.2 mph - 0.10 in Rain Light Rain
8:49 AM 57.2 °F 55.4 °F 94% 29.84 in 3.0 mi WNW 9.2 mph - 0.13 in Rain Rain
8:54 AM 57.0 °F 55.0 °F 93% 29.86 in 4.0 mi WNW 9.2 mph - 0.14 in Rain Light Rain
9:08 AM 57.0 °F 55.0 °F 93% 29.85 in 2.0 mi WNW 10.4 mph - 0.04 in Rain Rain
9:24 AM 57.0 °F 55.0 °F 93% 29.85 in 3.0 mi NW 13.8 mph 18.4 mph 0.07 in Rain Light Rain
9:34 AM 57.0 °F 55.0 °F 93% 29.85 in 2.5 mi WNW 11.5 mph - 0.09 in Rain Light Rain
9:43 AM 57.0 °F 55.0 °F 93% 29.84 in 7.0 mi NW 11.5 mph - 0.10 in Rain Light Rain
9:54 AM 57.0 °F 55.0 °F 93% 29.85 in 1.8 mi NW 12.7 mph - 0.13 in Rain Rain
10:01 AM 57.0 °F 55.0 °F 93% 29.84 in 3.0 mi NW 10.4 mph - 0.01 in Rain Light Rain
10:19 AM 57.9 °F 55.9 °F 93% 29.85 in 7.0 mi NW 10.4 mph - 0.02 in Rain Light Rain
10:54 AM 59.0 °F 55.0 °F 87% 29.86 in 10.0 mi NW 10.4 mph - 0.03 in   Overcast
11:31 AM 59.0 °F 55.0 °F 87% 29.86 in 10.0 mi NW 10.4 mph - N/A   Overcast
11:54 AM 59.0 °F 55.0 °F 87% 29.87 in 10.0 mi NNW 9.2 mph - N/A   Overcast
12:03 PM 59.0 °F 55.0 °F 87% 29.86 in 10.0 mi NNW 10.4 mph - N/A   Overcast
12:54 PM 61.0 °F 55.0 °F 81% 29.87 in 10.0 mi NW 10.4 mph - 0.00 in   Overcast
1:29 PM 63.0 °F 55.0 °F 75% 29.85 in 10.0 mi NW 11.5 mph - N/A   Mostly Cloudy
1:54 PM 64.0 °F 55.0 °F 73% 29.86 in 10.0 mi NW 10.4 mph - N/A   Overcast
2:37 PM 64.9 °F 55.0 °F 70% 29.85 in 10.0 mi NNW 9.2 mph - N/A   Overcast
2:54 PM 64.9 °F 55.0 °F 70% 29.86 in 10.0 mi NNW 6.9 mph - N/A   Overcast
3:54 PM 66.9 °F 54.0 °F 63% 29.84 in 10.0 mi NW 6.9 mph - N/A   Scattered Clouds
4:54 PM 69.1 °F 54.0 °F 58% 29.84 in 10.0 mi NW 4.6 mph - N/A   Mostly Cloudy
5:54 PM 70.0 °F 54.0 °F 57% 29.85 in 10.0 mi NNW 4.6 mph - N/A   Mostly Cloudy
6:54 PM 66.9 °F 57.0 °F 70% 29.85 in 10.0 mi SE 5.8 mph - N/A   Scattered Clouds
7:54 PM 66.0 °F 55.0 °F 68% 29.87 in 10.0 mi Calm Calm - N/A   Mostly Cloudy
8:54 PM 64.0 °F 55.0 °F 73% 29.89 in 10.0 mi Calm Calm - N/A   Scattered Clouds
9:54 PM 61.0 °F 55.0 °F 81% 29.91 in 10.0 mi Calm Calm - N/A   Partly Cloudy
10:54 PM 64.0 °F 51.1 °F 63% 29.93 in 10.0 mi NW 8.1 mph - N/A   Overcast
11:54 PM 63.0 °F 48.0 °F 58% 29.94 in 10.0 mi NNW 12.7 mph - N/A   Overcast